Location: Sungai Kamana Besar
(2.6333°N, 113.4333°E)
Time: 05:37:25
(UTC+00:00)

Cosmos 2082 Rocket - Pass Details

Date: 29 May 2022
Orbit: 832 x 854 km, 71.0° (Epoch: 26 June)

Event Time Altitude Azimuth Distance (km) Brightness Sun altitude
Exits shadow 21:44:06 - 229° (SW) 2,629 4.2 -8.2°
Reaches altitude 10° 21:44:38 10° 232° (SW) 2,463 4.0 -8.1°
Maximum altitude 21:49:13 25° 286° (WNW) 1,626 3.3 -7.0°
Drops below altitude 10° 21:53:49 10° 341° (NNW) 2,467 4.7 -6.0°
Sets 21:56:41 0° 354° (N) 3,403 5.6 -5.3°
